Location: Rumah Long Bangan
(2.8362°N, 113.7519°E)
Time: 19:36:59
(UTC+00:00)

Cosmos 1975 Rocket - Pass Details

Date: 24 October 2021
Orbit: 602 x 634 km, 82.5° (Epoch: 08 December)

Event Time Altitude Azimuth Distance (km) Brightness Sun altitude
Rises 20:44:55 0° 188° (S) 2,874 6.5 -21.2°
Reaches altitude 10° 20:47:09 10° 191° (S) 1,972 5.6 -20.6°
Maximum altitude 20:51:29 68° 273° (W) 666 2.9 -19.6°
Drops below altitude 10° 20:55:51 10° 357° (N) 1,985 5.5 -18.5°
Sets 20:58:06 0° 360° (N) 2,894 6.4 -18.0°
